Regional Weather Roundup
Issued by NWS

Home | Current Version | Previous Version | Graphics & Text | Print | Product List | Glossary On
Versions: 1 2 3 4 5 6 7 8 9 10 11 12 13 14 15 16 17 18 19 20 21 22 23 24 25 26 27 28 29 30 31 32 33 34 35 36 37 38 39 40 41 42 43 44 45 46 47 48 49 50
000
ASUS45 KBOU 250307
RWRCO

WEATHER ROUNDUP FOR COLORADO
NATIONAL WEATHER SERVICE DENVER/BOULDER CO
800 PM MST WED DEC 24 2014

NOTE: "FAIR" INDICATES FEW OR NO CLOUDS BELOW 12000 FEET WITH NO
SIGNIFICANT WEATHER AND/OR OBSTRUCTIONS TO VISIBILITY.

COZ001>005-013-030-031-250400-
...NORTHWEST COLORADO...

CITY           SKY/WX    TMP DP  RH WIND       PRES   REMARKS
CRAIG          CLOUDY    24  16  71 CALM      29.72F
HAYDEN         CLOUDY    21   9  58 E9        29.72F WCI  11
MEEKER         CLOUDY    32  14  47 W12       29.72F WCI  23
MOUNT WERNER   NOT AVBL
STEAMBOAT SPGS CLOUDY    16  10  78 CALM      29.72F
WALDEN         MOCLDY    23  12  63 S12G20    29.65F WCI  12
$$

COZ006>008-011-250400-
...WEST CENTRAL VALLEYS...

CITY           SKY/WX    TMP DP  RH WIND       PRES   REMARKS
GRAND JUNCTION CLOUDY    29  21  72 NE7       29.82F WCI  22
MONTROSE       CLOUDY    28  18  66 CALM      29.85F
EAGLE          PTCLDY    16   9  73 CALM      29.82F
RIFLE          CLOUDY    26  17  68 CALM      29.83F
DELTA          CLOUDY    31  17  55 CALM      29.83F
NUCLA          CLOUDY    30  18  59 E8        29.86F WCI  23
$$

COZ017>023-064>068-250400-
...SOUTHWEST COLORADO...

CITY           SKY/WX    TMP DP  RH WIND       PRES   REMARKS
DURANGO        CLOUDY    26  12  55 NE6       29.91F WCI  19
CORTEZ         CLEAR     29  20  69 NE3       29.88F
PAGOSA SPRINGS CLOUDY    21  11  65 CALM      29.91F
TELLURIDE      CLOUDY    30  18  60 SE3       29.85F
WOLF CREEK PAS CLOUDY    14   5  67 MISG      29.85F
$$

COZ009-010-012-014-032>034-037-058>063-250400-
...CENTRAL COLORADO...

CITY           SKY/WX    TMP DP  RH WIND       PRES   REMARKS
ASPEN          CLOUDY    17  10  74 CALM      29.74F
BUENA VISTA    PTCLDY    26  11  52 SW5       29.72F WCI  20
COPPER MTN     PTCLDY    23  10  58 SW23G38   29.75F WCI   7
BERTHOUD PASS  FAIR      18  12  79 MISG      29.63F HAZE
COTTONWOOD PAS PTCLDY    32  12  43 W9G22     29.72F WCI  24
GUNNISON       CLOUDY     0 -15  50 NE5       29.91F WCI -10
KREMMLING      MOCLDY     1  -2  85 N3        29.77F
LEADVILLE      MOCLDY    23   9  55 NE6       29.72F WCI  16
MONARCH PASS   PTCLDY    14  10  85 MISG      29.88F
SALIDA         PTCLDY    35   8  33 SW15G23   29.79F WCI  25
SUNLIGHT       CLOUDY   N/A N/A N/A MISG      29.77F
WILKERSON PASS MOCLDY    19  10  68 SW14G23   29.71F WCI   6
$$

COZ069>075-250400-
...SAN LUIS VALLEY/SANGRE DE CRISTO MOUNTAINS...

CITY           SKY/WX    TMP DP  RH WIND       PRES   REMARKS
ALAMOSA        CLOUDY    16   6  65 CALM      29.84F
LA VETA PASS   MOCLDY    16   3  57 MISG      29.74F
SAGUACHE       MOCLDY     7   0  72 NW3       29.86F
$$

COZ035-036-038>040-250400-
...NORTHERN COLORADO FRONT RANGE...

CITY           SKY/WX    TMP DP  RH WIND       PRES   REMARKS
DENVER INTL AP CLOUDY    39  21  48 S10       29.54F
DMNS CITY PARK   N/A     39  22  50 SW3       29.53F
AURORA         CLOUDY    41  18  40 S13       29.56F
FRONT RANGE AP NOT AVBL
ERIE MUNI ARPT   N/A     50  10  19 SW22G31   29.51F
BOULDER MUN AP CLOUDY    48  14  25 S8G18     29.54F
CENTENNIAL     CLOUDY    40  18  41 S12       29.56F
BROOMFIELD     MOCLDY    46  12  25 W5        29.55F
FORT COLLINS   CLOUDY    28  12  50 CALM      29.53F
LONGMONT       CLOUDY    45  14  28 CALM      29.54F
$$

COZ041-046-047-076>085-087-088-250400-
...PIKES PEAK/PALMER DIVIDE AND SOUTHERN FOOTHILLS...

CITY           SKY/WX    TMP DP  RH WIND       PRES   REMARKS
COLO. SPRINGS  CLOUDY    29  14  53 VRB3      29.63F
A. F. ACADEMY  MOCLDY    28  15  59 NE2       29.62F
ELLICOTT       NOT AVBL
FALCON         MOCLDY    29  17  61 W6        29.63F WCI  23
FORT CARSON    CLOUDY    29  14  53 N7        29.61F WCI  22
LIMON          CLOUDY    32  16  51 SE8       29.61F WCI  25
MONUMENT HILL  CLOUDY    36  14  41 SW9       29.60F
TRINIDAD       CLOUDY    38  16  40 W16       29.65F
$$

COZ042>045-048>051-090-091-250400-
...NORTHEAST COLORADO...

CITY           SKY/WX    TMP DP  RH WIND       PRES   REMARKS
GREELEY ARPT   CLOUDY    27  10  50 CALM      29.52F
AKRON          CLOUDY    36  22  56 S9        29.53F
BURLINGTON     CLOUDY    33  19  56 SW10      29.59F WCI  25
WRAY           MOCLDY    38  20  48 SW10      29.58F
STERLING       CLOUDY    30  25  80 NE3       29.54F
HOLYOKE        MOCLDY    34  27  75 SW5       29.56F WCI  30
FORT MORGAN    CLOUDY    33  23  66 CALM      29.54F
$$

COZ086-089-092>099-250400-
...SOUTHEAST COLORADO...

CITY           SKY/WX    TMP DP  RH WIND       PRES   REMARKS
PUEBLO         CLOUDY    29  20  69 CALM      29.60F
LA JUNTA       MOCLDY    38  22  52 S13       29.62F
LAMAR          MOCLDY    25  17  72 CALM      29.61F
SPRINGFIELD      N/A     30  16  56 SW9       29.65F WCI  22
$$


USA.gov is the U.S. government's official web portal to all federal, state and local government web resources and services.